Weather History for KLUX - March, 2013

Change the Weather History Date:

Tuesday, March 5, 2013

  Actual Average (KGSP) Record (KGSP)
Temperature  
Mean Temperature 54 °F 50 °F  
Max Temperature 66 °F 61 °F 80 °F (1976)
Min Temperature 41 °F 39 °F 12 °F (1960)
Degree Days  
Heating Degree Days 12 15  
Month to date heating degree days 78  
Since 1 July heating degree days 2527  
Cooling Degree Days 0 0  
Month to date cooling degree days 0  
Year to date cooling degree days 0  
Growing Degree Days 4 (Base 50)    
Moisture  
Dew Point 42 °F    
Average Humidity 71    
Maximum Humidity 100    
Minimum Humidity 49    
Precipitation  
Precipitation 0.10 in 0.14 in 3.80 in (1963)
Month to date precipitation 0.72  
Year to date precipitation 8.51  
Snow  
Snow 0.00 in 0.00 in 1.00 in (1912)
Month to date snowfall 0.2  
Since 1 July snowfall 4.0  
Snow Depth -    
Sea Level Pressure  
Sea Level Pressure 29.88 in    
Wind  
Wind Speed 7 mph (SSW)    
Max Wind Speed 22 mph    
Max Gust Speed 33 mph    
Visibility 10 miles    
Events Rain , Thunderstorm    
T = Trace of Precipitation, MM = Missing Value Source: NWS Daily Summary

Daily Weather History Graph

Daily Weather History Graph

Search for Another Location

Airport or City:

Trip Planner

Search our weather history database for the weather conditions in past years. The results will help you decide how hot, cold, wet, or windy it might be!

Date:

Astronomy

Mar. 05, 2013 Rise Set
Actual Time 6:51 AM EST 6:27 PM EST
Civil Twilight 6:26 AM EST 6:52 PM EST
Nautical Twilight 5:57 AM EST 7:21 PM EST
Astronomical Twilight 5:27 AM EST 7:50 PM EST
Moon 1:51 AM EST 12:16 PM EST
Length of Visible Light 12h 26m
Length of Day
11h 36m
Last Quarter, 41% of the Moon is Illuminated
Mar 5
Last Quarter
Mar 11
New
Mar 19
First Quarter
Mar 27
Full
Apr 3
Last Quarter

Hourly Weather History & Observations

Time (EST) Temp. Windchill Dew Point Humidity Pressure Visibility Wind Dir Wind Speed Gust Speed Precip Events Conditions
12:15 AM 44.6 °F 42.2 °F 26.6 °F 49% 30.07 in 10.0 mi South 4.6 mph - N/A   Clear
12:35 AM 44.6 °F 42.2 °F 26.6 °F 49% 30.08 in 10.0 mi SSW 4.6 mph - N/A   Clear
12:55 AM 42.8 °F 41.1 °F 26.6 °F 53% 30.08 in 10.0 mi SSW 3.5 mph - N/A   Clear
1:35 AM 42.8 °F 41.1 °F 26.6 °F 53% 30.09 in 10.0 mi SW 3.5 mph - N/A   Clear
1:55 AM 42.8 °F 41.1 °F 28.4 °F 57% 30.08 in 10.0 mi SW 3.5 mph - N/A   Clear
2:35 AM 42.8 °F 40.1 °F 28.4 °F 57% 30.07 in 10.0 mi SW 4.6 mph - N/A   Clear
2:55 AM 41.0 °F 39.0 °F 30.2 °F 65% 30.06 in 10.0 mi SSW 3.5 mph - N/A   Clear
3:15 AM 41.0 °F 39.0 °F 30.2 °F 65% 30.06 in 10.0 mi SSW 3.5 mph - N/A   Clear
3:35 AM 41.0 °F 39.0 °F 30.2 °F 65% 30.06 in 10.0 mi SSW 3.5 mph - N/A   Clear
3:55 AM 41.0 °F 39.0 °F 30.2 °F 65% 30.04 in 10.0 mi SSE 3.5 mph - N/A   Clear
4:15 AM 41.0 °F 38.0 °F 32.0 °F 70% 30.04 in 10.0 mi South 4.6 mph - N/A   Clear
4:35 AM 41.0 °F 39.0 °F 30.2 °F 65% 30.04 in 10.0 mi South 3.5 mph - N/A   Scattered Clouds
4:55 AM 42.8 °F 40.1 °F 32.0 °F 66% 30.04 in 10.0 mi South 4.6 mph - N/A   Mostly Cloudy
5:35 AM 42.8 °F 41.1 °F 32.0 °F 66% 30.04 in 10.0 mi South 3.5 mph - N/A   Overcast
5:55 AM 42.8 °F 41.1 °F 32.0 °F 66% 30.05 in 10.0 mi SSW 3.5 mph - N/A   Overcast
6:15 AM 42.8 °F - 32.0 °F 66% 30.04 in 10.0 mi Calm Calm - N/A   Overcast
6:35 AM 42.8 °F 40.1 °F 32.0 °F 66% 30.04 in 10.0 mi SSW 4.6 mph - N/A   Overcast
6:55 AM 42.8 °F 41.1 °F 33.8 °F 70% 30.04 in 10.0 mi West 3.5 mph - N/A Rain Light Rain
7:55 AM 41.0 °F 37.1 °F 37.4 °F 87% 30.03 in 10.0 mi SSW 5.8 mph - N/A   Overcast
8:15 AM 41.0 °F 37.1 °F 37.4 °F 87% 30.03 in 10.0 mi SSW 5.8 mph - N/A   Overcast
8:35 AM 42.8 °F 39.3 °F 37.4 °F 81% 30.03 in 10.0 mi South 5.8 mph - N/A   Overcast
9:15 AM 42.8 °F 40.1 °F 37.4 °F 81% 30.02 in 10.0 mi SSW 4.6 mph - N/A   Overcast
9:35 AM 42.8 °F 38.0 °F 37.4 °F 81% 30.02 in 10.0 mi South 8.1 mph - N/A   Overcast
9:55 AM 44.6 °F 40.2 °F 39.2 °F 81% 30.01 in 10.0 mi South 8.1 mph - N/A   Overcast
10:15 AM 44.6 °F 41.4 °F 39.2 °F 81% 30.00 in 10.0 mi SSW 5.8 mph - N/A   Overcast
10:35 AM 44.6 °F 39.7 °F 41.0 °F 87% 30.00 in 10.0 mi SSW 9.2 mph - N/A   Overcast
10:55 AM 46.4 °F 42.9 °F 41.0 °F 81% 29.98 in 10.0 mi South 6.9 mph - N/A   Overcast
11:15 AM 48.2 °F - 41.0 °F 76% 29.98 in 10.0 mi SSW 5.8 mph - N/A   Overcast
11:55 AM 53.6 °F - 44.6 °F 72% 29.95 in 10.0 mi SW 9.2 mph 17.3 mph N/A   Mostly Cloudy
12:15 PM 55.4 °F - 44.6 °F 67% 29.94 in 10.0 mi SW 6.9 mph - N/A   Scattered Clouds
12:35 PM 59.0 °F - 44.6 °F 59% 29.93 in 10.0 mi WSW 5.8 mph - N/A   Clear
12:55 PM 60.8 °F - 46.4 °F 59% 29.90 in 10.0 mi Calm Calm - N/A   Clear
1:15 PM 62.6 °F - 46.4 °F 55% 29.88 in 10.0 mi SSW 8.1 mph - N/A   Scattered Clouds
1:35 PM 60.8 °F - 46.4 °F 59% 29.87 in 10.0 mi SSW 4.6 mph - N/A   Mostly Cloudy
1:55 PM 60.8 °F - 46.4 °F 59% 29.85 in 10.0 mi Calm Calm - N/A   Overcast
2:15 PM 60.8 °F - 46.4 °F 59% 29.84 in 10.0 mi Calm Calm - N/A   Overcast
2:35 PM 62.6 °F - 48.2 °F 59% 29.83 in 10.0 mi SSW 5.8 mph - N/A   Overcast
2:55 PM 62.6 °F - 48.2 °F 59% 29.81 in 10.0 mi SW 10.4 mph 19.6 mph N/A   Overcast
3:15 PM 64.4 °F - 48.2 °F 56% 29.79 in 10.0 mi SSW 9.2 mph - N/A   Overcast
3:35 PM 64.4 °F - 50.0 °F 59% 29.77 in 10.0 mi SSW 9.2 mph - N/A   Overcast
3:55 PM 66.2 °F - 50.0 °F 56% 29.75 in 10.0 mi SSW 10.4 mph 17.3 mph N/A   Overcast
4:15 PM 66.2 °F - 50.0 °F 56% 29.74 in 10.0 mi SSW 16.1 mph 25.3 mph N/A   Overcast
4:35 PM 66.2 °F - 48.2 °F 52% 29.74 in 10.0 mi SSW 17.3 mph 21.9 mph N/A   Overcast
4:55 PM 64.4 °F - 50.0 °F 59% 29.72 in 10.0 mi SSW 15.0 mph 20.7 mph N/A   Overcast
5:15 PM 64.4 °F - 50.0 °F 59% 29.71 in 10.0 mi South 19.6 mph 32.2 mph N/A   Light Drizzle
5:35 PM 62.6 °F - 51.8 °F 68% 29.69 in 10.0 mi SSW 17.3 mph 31.1 mph N/A   Mostly Cloudy
5:55 PM 60.8 °F - 51.8 °F 72% 29.68 in 10.0 mi South 17.3 mph 29.9 mph N/A Rain Light Rain
6:15 PM 60.8 °F - 51.8 °F 72% 29.67 in 7.0 mi South 17.3 mph 26.5 mph 0.01 in Rain Heavy Rain
6:55 PM 57.2 °F - 57.2 °F 100% 29.66 in 7.0 mi South 15.0 mph - 0.10 in Rain , Thunderstorm Heavy Thunderstorms and Rain
7:15 PM 55.4 °F - 55.4 °F 100% 29.70 in 10.0 mi SW 21.9 mph 32.2 mph N/A Rain , Thunderstorm Light Thunderstorms and Rain
7:35 PM 57.2 °F - 57.2 °F 100% 29.69 in 10.0 mi WSW 11.5 mph 18.4 mph N/A   Mostly Cloudy
7:55 PM 55.4 °F - 55.4 °F 100% 29.68 in 10.0 mi WSW 4.6 mph 19.6 mph N/A   Scattered Clouds
8:15 PM 55.4 °F - 55.4 °F 100% 29.68 in 10.0 mi WSW 6.9 mph - N/A   Scattered Clouds
8:35 PM 55.4 °F - 55.4 °F 100% 29.68 in 10.0 mi WSW 6.9 mph - N/A   Mostly Cloudy
8:55 PM 55.4 °F - 55.4 °F 100% 29.68 in 10.0 mi SW 12.7 mph 20.7 mph N/A   Mostly Cloudy
9:15 PM 53.6 °F - 53.6 °F 100% 29.68 in 10.0 mi WSW 11.5 mph 19.6 mph N/A   Mostly Cloudy
9:35 PM 53.6 °F - 51.8 °F 94% 29.69 in 10.0 mi WSW 10.4 mph 26.5 mph N/A   Scattered Clouds
9:55 PM 51.8 °F - 46.4 °F 82% 29.70 in 10.0 mi West 12.7 mph 19.6 mph N/A   Clear
10:15 PM 51.8 °F - 42.8 °F 71% 29.70 in 10.0 mi WSW 13.8 mph 33.4 mph N/A   Clear
10:35 PM 50.0 °F - 41.0 °F 71% 29.70 in 10.0 mi West 13.8 mph 29.9 mph N/A   Clear
10:55 PM 50.0 °F - 37.4 °F 62% 29.70 in 10.0 mi West 11.5 mph 26.5 mph N/A   Clear
11:15 PM 48.2 °F - 37.4 °F 66% 29.70 in 10.0 mi West 15.0 mph 26.5 mph N/A   Clear
11:35 PM 46.4 °F 41.1 °F 33.8 °F 62% 29.71 in 10.0 mi West 11.5 mph 25.3 mph N/A   Clear
11:55 PM 44.6 °F 38.4 °F 33.8 °F 66% 29.71 in 10.0 mi West 12.7 mph 28.8 mph N/A   Clear